User: anonymous   Login
Location: Laan Hart van Zuid
(52.2563°N, 6.7904°E)
Time: 14:32:11
(UTC+02:00)
Language:

BlueWalker 3 - Orbit

View from above orbital plane
View from above orbital plane
View from above satellite
View from above satellite

Ground track
Ground track

The orbit data is extracted from the following two-line orbital elements,

1 53807U 22111AL  24141.49278091  .00010800  00000-0  42931-3 0  9993
2 53807  53.2398 321.2153 0008933  21.2292 338.9077 15.25807854 94008
Epoch (UTC): 20 May 2024 11:49:36
Eccentricity: 0.0008933
inclination: 53.2398°
perigee height: 482 km
apogee height: 494 km
right ascension of ascending node: 321.2153°
argument of perigee: 21.2292°
revolutions per day: 15.25807854
mean anomaly at epoch: 338.9077°
orbit number at epoch: 9400

The dashed part of the orbit path shows where the satellite is in the earth's shadow,  

DLR